Time,TemperatureF,DewpointF,PressureIn,WindDirection,WindDirectionDegrees,WindSpeedMPH,WindSpeedGustMPH,Humidity,HourlyPrecipIn,Conditions,Clouds,dailyrainin,SoftwareType,DateUTC
2013-03-02 00:02:00,23.9,20.0,29.85,East,79,6.0,6.0,85,0.00,,,0.00,Wunderground v.1.15,2013-03-02 09:02:00,
2013-03-02 00:08:00,23.6,19.8,29.85,East,84,6.0,6.0,85,0.00,,,0.00,Wunderground v.1.15,2013-03-02 09:08:00,
2013-03-02 00:14:00,23.7,19.9,29.86,East,90,5.0,6.0,85,0.00,,,0.00,Wunderground v.1.15,2013-03-02 09:14:00,
2013-03-02 00:20:00,23.9,20.0,29.86,ENE,72,5.0,7.0,85,0.00,,,0.00,Wunderground v.1.15,2013-03-02 09:20:00,
2013-03-02 00:26:00,24.0,19.9,29.86,East,85,5.0,6.0,84,0.00,,,0.00,Wunderground v.1.15,2013-03-02 09:26:00,
2013-03-02 00:32:00,24.0,20.1,29.86,ENE,72,4.0,5.0,85,0.00,,,0.00,Wunderground v.1.15,2013-03-02 09:32:00,
2013-03-02 00:37:00,24.3,20.2,29.86,ENE,70,5.0,5.0,84,0.00,,,0.00,Wunderground v.1.15,2013-03-02 09:37:00,
2013-03-02 00:43:00,23.9,19.8,29.86,East,79,5.0,6.0,84,0.00,,,0.00,Wunderground v.1.15,2013-03-02 09:43:00,
2013-03-02 00:49:00,23.9,19.8,29.86,ENE,77,5.0,6.0,84,0.00,,,0.00,Wunderground v.1.15,2013-03-02 09:49:00,
2013-03-02 00:55:00,23.5,19.4,29.87,East,79,5.0,6.0,84,0.00,,,0.00,Wunderground v.1.15,2013-03-02 09:55:00,
2013-03-02 01:00:00,23.2,19.4,29.87,East,93,5.0,6.0,85,0.00,,,0.00,Wunderground v.1.15,2013-03-02 10:00:00,
2013-03-02 01:06:00,23.3,19.5,29.87,ESE,112,5.0,6.0,85,0.00,,,0.00,Wunderground v.1.15,2013-03-02 10:06:00,
2013-03-02 01:13:00,23.3,19.5,29.87,ESE,103,5.0,5.0,85,0.00,,,0.00,Wunderground v.1.15,2013-03-02 10:13:00,
2013-03-02 01:18:00,23.4,19.6,29.87,East,90,5.0,5.0,85,0.00,,,0.00,Wunderground v.1.15,2013-03-02 10:18:00,
2013-03-02 01:23:00,23.6,19.8,29.87,East,98,5.0,5.0,85,0.00,,,0.00,Wunderground v.1.15,2013-03-02 10:23:00,
2013-03-02 01:29:00,23.7,19.9,29.87,ESE,111,4.0,5.0,85,0.00,,,0.00,Wunderground v.1.15,2013-03-02 10:29:00,
2013-03-02 01:35:00,23.0,18.9,29.87,SE,139,4.0,4.0,84,0.00,,,0.00,Wunderground v.1.15,2013-03-02 10:35:00,
2013-03-02 01:40:00,22.3,18.5,29.87,SSE,148,4.0,4.0,85,0.00,,,0.00,Wunderground v.1.15,2013-03-02 10:40:00,
2013-03-02 01:46:00,22.7,19.1,29.88,SSE,149,3.0,4.0,86,0.00,,,0.00,Wunderground v.1.15,2013-03-02 10:46:00,
2013-03-02 01:52:00,22.6,18.8,29.88,ESE,117,3.0,3.0,85,0.00,,,0.00,Wunderground v.1.15,2013-03-02 10:52:00,
2013-03-02 01:58:00,22.3,18.5,29.88,ESE,117,3.0,3.0,85,0.00,,,0.00,Wunderground v.1.15,2013-03-02 10:58:00,
2013-03-02 02:03:00,21.9,18.6,29.88,ESE,115,2.0,3.0,87,0.00,,,0.00,Wunderground v.1.15,2013-03-02 11:03:00,
2013-03-02 02:09:00,21.7,18.4,29.88,ESE,115,1.0,3.0,87,0.00,,,0.00,Wunderground v.1.15,2013-03-02 11:09:00,
2013-03-02 02:15:00,21.9,19.2,29.88,SE,138,1.0,3.0,89,0.00,,,0.00,Wunderground v.1.15,2013-03-02 11:15:00,
2013-03-02 02:21:00,22.1,19.4,29.88,SE,134,1.0,1.0,89,0.00,,,0.00,Wunderground v.1.15,2013-03-02 11:21:00,
2013-03-02 02:26:00,22.3,19.3,29.88,SE,133,1.0,3.0,88,0.00,,,0.00,Wunderground v.1.15,2013-03-02 11:26:00,
2013-03-02 02:32:00,22.3,19.0,29.89,East,96,1.0,3.0,87,0.00,,,0.00,Wunderground v.1.15,2013-03-02 11:32:00,
2013-03-02 02:38:00,22.1,19.1,29.89,East,86,2.0,3.0,88,0.00,,,0.00,Wunderground v.1.15,2013-03-02 11:38:00,
2013-03-02 02:44:00,22.0,19.0,29.89,ESE,111,2.0,3.0,88,0.00,,,0.00,Wunderground v.1.15,2013-03-02 11:44:00,
2013-03-02 02:50:00,22.4,19.4,29.88,SE,134,3.0,3.0,88,0.00,,,0.00,Wunderground v.1.15,2013-03-02 11:50:00,
2013-03-02 02:56:00,22.5,18.9,29.89,East,86,3.0,3.0,86,0.00,,,0.00,Wunderground v.1.15,2013-03-02 11:56:00,
2013-03-02 03:02:00,22.1,19.1,29.89,East,83,3.0,3.0,88,0.00,,,0.00,Wunderground v.1.15,2013-03-02 12:02:00,
2013-03-02 03:07:00,22.4,19.4,29.89,East,84,2.0,3.0,88,0.00,,,0.00,Wunderground v.1.15,2013-03-02 12:07:00,
2013-03-02 03:12:00,22.9,19.9,29.89,East,86,2.0,3.0,88,0.00,,,0.00,Wunderground v.1.15,2013-03-02 12:12:00,
2013-03-02 03:18:00,23.6,20.0,29.89,ESE,115,2.0,3.0,86,0.00,,,0.00,Wunderground v.1.15,2013-03-02 12:18:00,
2013-03-02 03:23:00,23.3,19.5,29.89,East,93,2.0,3.0,85,0.00,,,0.00,Wunderground v.1.15,2013-03-02 12:23:00,
2013-03-02 03:29:00,23.3,19.7,29.88,SE,139,2.0,3.0,86,0.00,,,0.00,Wunderground v.1.15,2013-03-02 12:29:00,
2013-03-02 03:35:00,23.2,19.6,29.88,SE,144,3.0,3.0,86,0.00,,,0.00,Wunderground v.1.15,2013-03-02 12:35:00,
2013-03-02 03:40:00,23.0,19.7,29.88,SSE,148,3.0,3.0,87,0.00,,,0.00,Wunderground v.1.15,2013-03-02 12:40:00,
2013-03-02 03:46:00,23.0,19.7,29.87,SSE,153,4.0,5.0,87,0.00,,,0.00,Wunderground v.1.15,2013-03-02 12:46:00,
2013-03-02 03:52:00,22.9,19.6,29.87,SE,138,4.0,4.0,87,0.00,,,0.00,Wunderground v.1.15,2013-03-02 12:52:00,
2013-03-02 03:58:00,22.8,19.8,29.87,SSE,156,4.0,6.0,88,0.00,,,0.00,Wunderground v.1.15,2013-03-02 12:58:00,
2013-03-02 04:03:00,23.0,20.2,29.87,SE,139,5.0,5.0,89,0.00,,,0.00,Wunderground v.1.15,2013-03-02 13:03:00,
2013-03-02 04:09:00,23.3,20.5,29.87,SE,136,4.0,5.0,89,0.00,,,0.00,Wunderground v.1.15,2013-03-02 13:09:00,
2013-03-02 04:15:00,23.6,20.6,29.87,SE,139,4.0,5.0,88,0.00,,,0.00,Wunderground v.1.15,2013-03-02 13:15:00,
2013-03-02 04:21:00,23.8,20.8,29.87,SE,133,4.0,4.0,88,0.00,,,0.00,Wunderground v.1.15,2013-03-02 13:21:00,
2013-03-02 04:26:00,23.8,20.5,29.87,SE,129,4.0,5.0,87,0.00,,,0.00,Wunderground v.1.15,2013-03-02 13:26:00,
2013-03-02 04:32:00,23.8,20.2,29.87,ESE,122,5.0,5.0,86,0.00,,,0.00,Wunderground v.1.15,2013-03-02 13:32:00,
2013-03-02 04:38:00,23.9,20.3,29.87,SE,127,5.0,6.0,86,0.00,,,0.00,Wunderground v.1.15,2013-03-02 13:38:00,
2013-03-02 04:44:00,24.2,20.3,29.87,SE,146,5.0,6.0,85,0.00,,,0.00,Wunderground v.1.15,2013-03-02 13:44:00,
2013-03-02 04:50:00,24.7,20.6,29.87,SSE,150,5.0,7.0,84,0.00,,,0.00,Wunderground v.1.15,2013-03-02 13:50:00,
2013-03-02 04:56:00,24.9,20.8,29.87,SE,146,6.0,7.0,84,0.00,,,0.00,Wunderground v.1.15,2013-03-02 13:56:00,
2013-03-02 05:01:00,25.1,20.7,29.87,SE,146,6.0,6.0,83,0.00,,,0.00,Wunderground v.1.15,2013-03-02 14:01:00,
2013-03-02 05:06:00,25.2,20.8,29.87,SSE,152,5.0,6.0,83,0.00,,,0.00,Wunderground v.1.15,2013-03-02 14:06:00,
2013-03-02 05:12:00,25.3,20.6,29.88,SSE,167,5.0,5.0,82,0.00,,,0.00,Wunderground v.1.15,2013-03-02 14:12:00,
2013-03-02 05:18:00,25.1,20.4,29.87,SE,145,5.0,6.0,82,0.00,,,0.00,Wunderground v.1.15,2013-03-02 14:18:00,
2013-03-02 05:24:00,24.9,20.2,29.87,SE,146,5.0,6.0,82,0.00,,,0.00,Wunderground v.1.15,2013-03-02 14:24:00,
2013-03-02 05:29:00,25.0,20.0,29.87,SE,146,5.0,6.0,81,0.00,,,0.00,Wunderground v.1.15,2013-03-02 14:29:00,
2013-03-02 05:35:00,25.1,19.8,29.87,SE,131,5.0,6.0,80,0.00,,,0.00,Wunderground v.1.15,2013-03-02 14:35:00,
2013-03-02 05:41:00,24.9,19.6,29.87,SE,141,5.0,5.0,80,0.00,,,0.00,Wunderground v.1.15,2013-03-02 14:41:00,
2013-03-02 05:47:00,24.9,19.6,29.87,SE,136,5.0,6.0,80,0.00,,,0.00,Wunderground v.1.15,2013-03-02 14:47:00,
2013-03-02 05:52:00,25.2,19.6,29.87,SE,145,5.0,6.0,79,0.00,,,0.00,Wunderground v.1.15,2013-03-02 14:52:00,
2013-03-02 05:58:00,25.3,19.7,29.88,SSE,152,5.0,6.0,79,0.00,,,0.00,Wunderground v.1.15,2013-03-02 14:58:00,
2013-03-02 06:04:00,25.1,19.5,29.88,SSE,149,5.0,8.0,79,0.00,,,0.00,Wunderground v.1.15,2013-03-02 15:04:00,
2013-03-02 06:10:00,25.0,19.1,29.88,SSE,152,5.0,8.0,78,0.00,,,0.00,Wunderground v.1.15,2013-03-02 15:10:00,
2013-03-02 06:15:00,25.1,19.2,29.88,SE,146,5.0,8.0,78,0.00,,,0.00,Wunderground v.1.15,2013-03-02 15:15:00,
2013-03-02 06:21:00,25.1,18.9,29.88,SE,146,5.0,5.0,77,0.00,,,0.00,Wunderground v.1.15,2013-03-02 15:21:00,
2013-03-02 06:27:00,25.0,18.8,29.88,SE,138,4.0,8.0,77,0.00,,,0.00,Wunderground v.1.15,2013-03-02 15:27:00,
2013-03-02 06:33:00,25.0,18.8,29.88,SSE,158,5.0,8.0,77,0.00,,,0.00,Wunderground v.1.15,2013-03-02 15:33:00,
2013-03-02 06:38:00,25.0,18.8,29.88,SSE,150,6.0,8.0,77,0.00,,,0.00,Wunderground v.1.15,2013-03-02 15:38:00,
2013-03-02 06:44:00,25.0,18.8,29.88,SSE,148,6.0,8.0,77,0.00,,,0.00,Wunderground v.1.15,2013-03-02 15:44:00,
2013-03-02 06:50:00,25.1,18.9,29.87,SE,146,6.0,8.0,77,0.00,,,0.00,Wunderground v.1.15,2013-03-02 15:50:00,
2013-03-02 06:56:00,25.0,18.8,29.87,SSE,155,6.0,8.0,77,0.00,,,0.00,Wunderground v.1.15,2013-03-02 15:56:00,
2013-03-02 07:02:00,25.1,18.9,29.87,SSE,161,6.0,8.0,77,0.00,,,0.00,Wunderground v.1.15,2013-03-02 16:02:00,
2013-03-02 07:08:00,25.1,18.9,29.88,SE,145,6.0,8.0,77,0.00,,,0.00,Wunderground v.1.15,2013-03-02 16:08:00,
2013-03-02 07:14:00,24.8,18.6,29.87,SE,139,6.0,8.0,77,0.00,,,0.00,Wunderground v.1.15,2013-03-02 16:14:00,
2013-03-02 07:20:00,24.7,18.5,29.87,SSE,158,6.0,8.0,77,0.00,,,0.00,Wunderground v.1.15,2013-03-02 16:20:00,
2013-03-02 07:25:00,24.7,18.5,29.87,SE,146,6.0,8.0,77,0.00,,,0.00,Wunderground v.1.15,2013-03-02 16:25:00,
2013-03-02 07:31:00,24.9,18.7,29.87,SSE,149,7.0,8.0,77,0.00,,,0.00,Wunderground v.1.15,2013-03-02 16:31:00,
2013-03-02 07:37:00,25.0,18.5,29.87,SE,146,7.0,9.0,76,0.00,,,0.00,Wunderground v.1.15,2013-03-02 16:37:00,
2013-03-02 07:43:00,25.0,18.5,29.87,SSE,150,7.0,9.0,76,0.00,,,0.00,Wunderground v.1.15,2013-03-02 16:43:00,
2013-03-02 07:49:00,25.1,18.3,29.87,SE,141,7.0,9.0,75,0.00,,,0.00,Wunderground v.1.15,2013-03-02 16:49:00,
2013-03-02 07:55:00,25.1,18.3,29.87,SE,134,7.0,8.0,75,0.00,,,0.00,Wunderground v.1.15,2013-03-02 16:55:00,
2013-03-02 08:01:00,25.3,18.5,29.87,SE,133,7.0,7.0,75,0.00,,,0.00,Wunderground v.1.15,2013-03-02 17:01:00,
2013-03-02 08:06:00,25.2,18.4,29.87,SSE,155,7.0,8.0,75,0.00,,,0.00,Wunderground v.1.15,2013-03-02 17:06:00,
2013-03-02 08:12:00,25.2,18.4,29.87,SSE,153,7.0,8.0,75,0.00,,,0.00,Wunderground v.1.15,2013-03-02 17:12:00,
2013-03-02 08:18:00,25.3,18.5,29.87,SSE,150,6.0,8.0,75,0.00,,,0.00,Wunderground v.1.15,2013-03-02 17:18:00,
2013-03-02 08:24:00,25.3,18.2,29.87,SE,134,7.0,8.0,74,0.00,,,0.00,Wunderground v.1.15,2013-03-02 17:24:00,
2013-03-02 08:29:00,25.2,18.1,29.87,SE,141,7.0,8.0,74,0.00,,,0.00,Wunderground v.1.15,2013-03-02 17:29:00,
2013-03-02 08:35:00,25.4,18.3,29.87,SSE,149,7.0,8.0,74,0.00,,,0.00,Wunderground v.1.15,2013-03-02 17:35:00,
2013-03-02 08:41:00,25.2,18.1,29.87,SSE,148,6.0,6.0,74,0.00,,,0.00,Wunderground v.1.15,2013-03-02 17:41:00,
2013-03-02 08:47:00,25.4,18.3,29.87,SSE,150,6.0,8.0,74,0.00,,,0.00,Wunderground v.1.15,2013-03-02 17:47:00,
2013-03-02 08:53:00,25.6,18.5,29.87,SSE,147,6.0,9.0,74,0.00,,,0.00,Wunderground v.1.15,2013-03-02 17:53:00,
2013-03-02 08:59:00,25.9,18.7,29.87,SSE,147,6.0,9.0,74,0.00,,,0.00,Wunderground v.1.15,2013-03-02 17:59:00,
2013-03-02 09:05:00,26.2,18.7,29.87,SSE,147,7.0,8.0,73,0.00,,,0.00,Wunderground v.1.15,2013-03-02 18:05:00,
2013-03-02 09:10:00,26.3,19.1,29.87,SE,135,6.0,8.0,74,0.00,,,0.00,Wunderground v.1.15,2013-03-02 18:10:00,
2013-03-02 09:16:00,26.6,19.1,29.87,SSE,152,5.0,8.0,73,0.00,,,0.00,Wunderground v.1.15,2013-03-02 18:16:00,
2013-03-02 09:22:00,27.1,19.3,29.87,SE,146,6.0,8.0,72,0.00,,,0.00,Wunderground v.1.15,2013-03-02 18:22:00,
2013-03-02 09:28:00,27.5,19.3,29.87,SSE,155,6.0,8.0,71,0.00,,,0.00,Wunderground v.1.15,2013-03-02 18:28:00,
2013-03-02 09:33:00,27.7,19.5,29.87,SSE,151,5.0,8.0,71,0.00,,,0.00,Wunderground v.1.15,2013-03-02 18:33:00,
2013-03-02 09:39:00,28.0,19.5,29.87,SSE,160,6.0,8.0,70,0.00,,,0.00,Wunderground v.1.15,2013-03-02 18:39:00,
2013-03-02 09:45:00,28.3,19.8,29.87,SSE,155,6.0,8.0,70,0.00,,,0.00,Wunderground v.1.15,2013-03-02 18:45:00,
2013-03-02 09:51:00,28.5,19.6,29.87,SSE,155,6.0,8.0,69,0.00,,,0.00,Wunderground v.1.15,2013-03-02 18:51:00,
2013-03-02 09:56:00,28.7,19.5,29.87,SSE,159,6.0,10.0,68,0.00,,,0.00,Wunderground v.1.15,2013-03-02 18:56:00,
2013-03-02 10:02:00,28.9,19.7,29.87,SSE,152,6.0,8.0,68,0.00,,,0.00,Wunderground v.1.15,2013-03-02 19:02:00,
2013-03-02 10:08:00,29.1,19.5,29.87,SSE,156,7.0,8.0,67,0.00,,,0.00,Wunderground v.1.15,2013-03-02 19:08:00,
2013-03-02 10:14:00,29.2,19.6,29.88,SSE,155,7.0,8.0,67,0.00,,,0.00,Wunderground v.1.15,2013-03-02 19:14:00,
2013-03-02 10:19:00,29.2,19.6,29.88,SE,146,6.0,8.0,67,0.00,,,0.00,Wunderground v.1.15,2013-03-02 19:19:00,
2013-03-02 10:25:00,29.3,19.7,29.88,SSE,156,5.0,8.0,67,0.00,,,0.00,Wunderground v.1.15,2013-03-02 19:25:00,
2013-03-02 10:31:00,29.5,19.9,29.88,SSE,158,6.0,8.0,67,0.00,,,0.00,Wunderground v.1.15,2013-03-02 19:31:00,
2013-03-02 10:37:00,29.6,20.0,29.88,SSE,148,6.0,8.0,67,0.00,,,0.00,Wunderground v.1.15,2013-03-02 19:37:00,
2013-03-02 10:42:00,29.8,20.2,29.88,SSE,152,5.0,8.0,67,0.00,,,0.00,Wunderground v.1.15,2013-03-02 19:42:00,
2013-03-02 10:48:00,30.1,20.5,29.88,South,172,4.0,8.0,67,0.00,,,0.00,Wunderground v.1.15,2013-03-02 19:48:00,
2013-03-02 10:54:00,30.6,20.6,29.88,SE,134,4.0,8.0,66,0.00,,,0.00,Wunderground v.1.15,2013-03-02 19:54:00,
2013-03-02 11:00:00,31.0,20.2,29.88,SSE,158,3.0,8.0,64,0.00,,,0.00,Wunderground v.1.15,2013-03-02 20:00:00,
2013-03-02 11:06:00,31.0,20.6,29.88,SE,143,4.0,8.0,65,0.00,,,0.00,Wunderground v.1.15,2013-03-02 20:06:00,
2013-03-02 11:12:00,31.3,20.5,29.88,South,170,3.0,8.0,64,0.00,,,0.00,Wunderground v.1.15,2013-03-02 20:12:00,
2013-03-02 11:18:00,31.3,20.2,29.88,SE,135,4.0,8.0,63,0.00,,,0.00,Wunderground v.1.15,2013-03-02 20:18:00,
2013-03-02 11:24:00,31.5,20.7,29.88,SSE,150,4.0,8.0,64,0.00,,,0.00,Wunderground v.1.15,2013-03-02 20:24:00,
2013-03-02 11:29:00,31.5,20.3,29.88,South,174,4.0,8.0,63,0.00,,,0.00,Wunderground v.1.15,2013-03-02 20:29:00,
2013-03-02 11:35:00,31.6,20.4,29.88,SSE,155,5.0,8.0,63,0.00,,,0.00,Wunderground v.1.15,2013-03-02 20:35:00,
2013-03-02 11:41:00,32.0,21.2,29.87,South,172,4.0,4.0,64,0.00,,,0.00,Wunderground v.1.15,2013-03-02 20:41:00,
2013-03-02 11:47:00,32.6,21.4,29.87,South,190,3.0,8.0,63,0.00,,,0.00,Wunderground v.1.15,2013-03-02 20:47:00,
2013-03-02 11:53:00,32.7,21.1,29.88,SSE,166,3.0,5.0,62,0.00,,,0.00,Wunderground v.1.15,2013-03-02 20:53:00,
2013-03-02 11:59:00,32.7,21.1,29.88,SSW,212,3.0,8.0,62,0.00,,,0.00,Wunderground v.1.15,2013-03-02 20:59:00,
2013-03-02 12:05:00,32.8,21.6,29.88,WSW,252,3.0,8.0,63,0.00,,,0.00,Wunderground v.1.15,2013-03-02 21:05:00,
2013-03-02 12:10:00,33.3,21.7,29.88,North,356,3.0,8.0,62,0.00,,,0.00,Wunderground v.1.15,2013-03-02 21:10:00,
2013-03-02 12:16:00,33.7,21.7,29.88,SE,144,2.0,8.0,61,0.00,,,0.00,Wunderground v.1.15,2013-03-02 21:16:00,
2013-03-02 12:22:00,33.4,21.8,29.88,SE,125,3.0,8.0,62,0.00,,,0.00,Wunderground v.1.15,2013-03-02 21:22:00,
2013-03-02 12:28:00,33.4,21.8,29.89,SSW,204,3.0,8.0,62,0.00,,,0.00,Wunderground v.1.15,2013-03-02 21:28:00,
2013-03-02 12:33:00,33.6,22.0,29.89,West,263,3.0,8.0,62,0.00,,,0.00,Wunderground v.1.15,2013-03-02 21:33:00,
2013-03-02 12:39:00,33.1,21.5,29.89,South,174,3.0,8.0,62,0.00,,,0.00,Wunderground v.1.15,2013-03-02 21:39:00,
2013-03-02 12:45:00,32.7,21.9,29.89,SE,139,3.0,8.0,64,0.00,,,0.00,Wunderground v.1.15,2013-03-02 21:45:00,
2013-03-02 12:51:00,33.3,22.1,29.89,East,101,2.0,8.0,63,0.00,,,0.00,Wunderground v.1.15,2013-03-02 21:51:00,
2013-03-02 12:57:00,33.9,23.0,29.89,South,188,2.0,8.0,64,0.00,,,0.00,Wunderground v.1.15,2013-03-02 21:57:00,
2013-03-02 13:03:00,33.9,22.2,29.88,SSW,207,3.0,8.0,62,0.00,,,0.00,Wunderground v.1.15,2013-03-02 22:03:00,
2013-03-02 13:08:00,34.3,22.6,29.88,SSE,165,3.0,8.0,62,0.00,,,0.00,Wunderground v.1.15,2013-03-02 22:08:00,
2013-03-02 13:14:00,33.7,22.1,29.88,SSE,165,4.0,8.0,62,0.00,,,0.00,Wunderground v.1.15,2013-03-02 22:14:00,
2013-03-02 13:19:00,33.6,22.7,29.88,SE,131,4.0,8.0,64,0.00,,,0.00,Wunderground v.1.15,2013-03-02 22:19:00,
2013-03-02 13:24:00,34.4,23.5,29.88,SSE,162,3.0,8.0,64,0.00,,,0.00,Wunderground v.1.15,2013-03-02 22:24:00,
2013-03-02 13:30:00,34.9,23.6,29.88,SW,228,3.0,8.0,63,0.00,,,0.00,Wunderground v.1.15,2013-03-02 22:30:00,
2013-03-02 13:36:00,34.8,23.1,29.88,ESE,115,3.0,8.0,62,0.00,,,0.00,Wunderground v.1.15,2013-03-02 22:36:00,
2013-03-02 13:41:00,34.8,23.9,29.88,NE,44,3.0,3.0,64,0.00,,,0.00,Wunderground v.1.15,2013-03-02 22:41:00,
2013-03-02 13:47:00,34.3,24.1,29.88,SSW,209,3.0,8.0,66,0.00,,,0.00,Wunderground v.1.15,2013-03-02 22:47:00,
2013-03-02 13:53:00,33.9,24.4,29.88,NE,56,4.0,8.0,68,0.00,,,0.00,Wunderground v.1.15,2013-03-02 22:53:00,
2013-03-02 13:59:00,33.8,24.4,29.88,East,87,4.0,8.0,68,0.00,,,0.00,Wunderground v.1.15,2013-03-02 22:59:00,
2013-03-02 14:04:00,33.8,24.7,29.88,ESE,117,4.0,8.0,69,0.00,,,0.00,Wunderground v.1.15,2013-03-02 23:04:00,
2013-03-02 14:10:00,33.8,25.0,29.88,ENE,59,3.0,8.0,70,0.00,,,0.00,Wunderground v.1.15,2013-03-02 23:10:00,
2013-03-02 14:16:00,33.5,25.1,29.88,ESE,105,4.0,8.0,71,0.00,,,0.00,Wunderground v.1.15,2013-03-02 23:16:00,
2013-03-02 14:21:00,33.7,25.0,29.88,ENE,77,3.0,3.0,70,0.00,,,0.00,Wunderground v.1.15,2013-03-02 23:21:00,
2013-03-02 14:27:00,33.8,25.0,29.88,NE,51,2.0,8.0,70,0.00,,,0.00,Wunderground v.1.15,2013-03-02 23:27:00,
2013-03-02 14:33:00,33.9,24.8,29.87,East,91,2.0,8.0,69,0.00,,,0.00,Wunderground v.1.15,2013-03-02 23:33:00,
2013-03-02 14:38:00,34.0,24.5,29.87,NE,44,2.0,8.0,68,0.00,,,0.00,Wunderground v.1.15,2013-03-02 23:38:00,
2013-03-02 14:44:00,34.1,24.3,29.86,ENE,66,4.0,8.0,67,0.00,,,0.00,Wunderground v.1.15,2013-03-02 23:44:00,
2013-03-02 14:50:00,34.0,24.5,29.86,NNE,23,3.0,8.0,68,0.00,,,0.00,Wunderground v.1.15,2013-03-02 23:50:00,
2013-03-02 14:56:00,34.0,24.9,29.86,NE,48,3.0,8.0,69,0.00,,,0.00,Wunderground v.1.15,2013-03-02 23:56:00,
2013-03-02 15:02:00,34.8,25.3,29.86,NE,55,3.0,5.0,68,0.00,,,0.00,Wunderground v.1.15,2013-03-03 00:02:00,
2013-03-02 15:07:00,35.4,25.5,29.86,East,98,2.0,8.0,67,0.00,,,0.00,Wunderground v.1.15,2013-03-03 00:07:00,
2013-03-02 15:13:00,35.3,25.8,29.86,ENE,77,3.0,8.0,68,0.00,,,0.00,Wunderground v.1.15,2013-03-03 00:13:00,
2013-03-02 15:19:00,34.4,26.0,29.87,ENE,66,6.0,10.0,71,0.00,,,0.00,Wunderground v.1.15,2013-03-03 00:19:00,
2013-03-02 15:25:00,34.4,26.3,29.86,ENE,63,5.0,8.0,72,0.00,,,0.00,Wunderground v.1.15,2013-03-03 00:25:00,
2013-03-02 15:31:00,34.2,26.1,29.87,East,81,3.0,3.0,72,0.00,,,0.00,Wunderground v.1.15,2013-03-03 00:31:00,
2013-03-02 15:37:00,33.9,25.8,29.87,ENE,72,3.0,8.0,72,0.00,,,0.00,Wunderground v.1.15,2013-03-03 00:37:00,
2013-03-02 15:43:00,33.6,25.9,29.87,NE,55,4.0,8.0,73,0.00,,,0.00,Wunderground v.1.15,2013-03-03 00:43:00,
2013-03-02 15:48:00,33.5,25.8,29.87,ENE,65,4.0,8.0,73,0.00,,,0.00,Wunderground v.1.15,2013-03-03 00:48:00,
2013-03-02 15:54:00,33.4,25.7,29.87,NE,36,4.0,8.0,73,0.00,,,0.00,Wunderground v.1.15,2013-03-03 00:54:00,
2013-03-02 16:00:00,33.6,25.9,29.87,ENE,60,4.0,8.0,73,0.00,,,0.00,Wunderground v.1.15,2013-03-03 01:00:00,
2013-03-02 16:06:00,33.5,25.8,29.87,ENE,75,4.0,8.0,73,0.00,,,0.00,Wunderground v.1.15,2013-03-03 01:06:00,
2013-03-02 16:11:00,33.5,25.8,29.87,East,82,3.0,3.0,73,0.00,,,0.00,Wunderground v.1.15,2013-03-03 01:11:00,
2013-03-02 16:17:00,33.5,25.8,29.87,ENE,75,2.0,8.0,73,0.00,,,0.00,Wunderground v.1.15,2013-03-03 01:17:00,
2013-03-02 16:23:00,33.5,26.1,29.87,NE,51,2.0,8.0,74,0.00,,,0.00,Wunderground v.1.15,2013-03-03 01:23:00,
2013-03-02 16:29:00,33.4,25.7,29.87,NE,55,1.0,8.0,73,0.00,,,0.00,Wunderground v.1.15,2013-03-03 01:29:00,
2013-03-02 16:35:00,33.5,25.8,29.87,ENE,78,2.0,8.0,73,0.00,,,0.01,Wunderground v.1.15,2013-03-03 01:35:00,
2013-03-02 16:41:00,33.5,25.8,29.87,ENE,77,2.0,2.0,73,0.00,,,0.01,Wunderground v.1.15,2013-03-03 01:41:00,
2013-03-02 16:47:00,33.6,25.9,29.87,East,85,1.0,8.0,73,0.00,,,0.01,Wunderground v.1.15,2013-03-03 01:47:00,
2013-03-02 16:52:00,33.4,25.7,29.87,NE,34,1.0,8.0,73,0.00,,,0.01,Wunderground v.1.15,2013-03-03 01:52:00,
2013-03-02 16:58:00,33.2,25.8,29.87,ENE,72,2.0,8.0,74,0.00,,,0.01,Wunderground v.1.15,2013-03-03 01:58:00,
2013-03-02 17:04:00,33.1,25.7,29.87,ENE,60,2.0,8.0,74,0.00,,,0.01,Wunderground v.1.15,2013-03-03 02:04:00,
2013-03-02 17:10:00,33.1,26.0,29.87,NE,37,1.0,8.0,75,0.00,,,0.01,Wunderground v.1.15,2013-03-03 02:10:00,
2013-03-02 17:15:00,32.8,25.7,29.87,ENE,64,1.0,8.0,75,0.00,,,0.01,Wunderground v.1.15,2013-03-03 02:15:00,
2013-03-02 17:21:00,32.6,25.9,29.87,NE,51,1.0,8.0,76,0.00,,,0.01,Wunderground v.1.15,2013-03-03 02:21:00,
2013-03-02 17:27:00,32.3,25.9,29.87,NE,49,1.0,8.0,77,0.00,,,0.01,Wunderground v.1.15,2013-03-03 02:27:00,
2013-03-02 17:33:00,32.0,25.9,29.87,NNE,30,2.0,8.0,78,0.00,,,0.01,Wunderground v.1.15,2013-03-03 02:33:00,
2013-03-02 17:38:00,31.8,26.0,29.87,NNE,19,2.0,8.0,79,0.00,,,0.01,Wunderground v.1.15,2013-03-03 02:38:00,
2013-03-02 17:44:00,31.7,26.2,29.87,NE,34,2.0,8.0,80,0.00,,,0.01,Wunderground v.1.15,2013-03-03 02:44:00,
2013-03-02 17:50:00,31.5,26.0,29.87,NNE,25,3.0,8.0,80,0.00,,,0.01,Wunderground v.1.15,2013-03-03 02:50:00,
2013-03-02 17:56:00,31.3,25.8,29.87,NNE,32,3.0,8.0,80,0.00,,,0.01,Wunderground v.1.15,2013-03-03 02:56:00,
2013-03-02 18:01:00,31.2,26.0,29.87,NE,49,3.0,3.0,81,0.00,,,0.01,Wunderground v.1.15,2013-03-03 03:01:00,
2013-03-02 18:07:00,30.9,25.8,29.87,North,10,3.0,8.0,81,0.00,,,0.01,Wunderground v.1.15,2013-03-03 03:07:00,
2013-03-02 18:13:00,30.8,25.7,29.87,North,354,3.0,8.0,81,0.00,,,0.01,Wunderground v.1.15,2013-03-03 03:13:00,
2013-03-02 18:19:00,30.8,25.7,29.87,NE,51,3.0,8.0,81,0.00,,,0.01,Wunderground v.1.15,2013-03-03 03:19:00,
2013-03-02 18:24:00,30.8,25.7,29.87,North,6,3.0,8.0,81,0.00,,,0.01,Wunderground v.1.15,2013-03-03 03:24:00,
2013-03-02 18:30:00,30.8,25.7,29.87,North,6,3.0,8.0,81,0.00,,,0.01,Wunderground v.1.15,2013-03-03 03:30:00,
2013-03-02 18:36:00,30.7,25.6,29.87,NNE,27,2.0,8.0,81,0.00,,,0.01,Wunderground v.1.15,2013-03-03 03:36:00,
2013-03-02 18:41:00,30.6,25.2,29.87,NE,45,3.0,3.0,80,0.00,,,0.01,Wunderground v.1.15,2013-03-03 03:41:00,
2013-03-02 18:47:00,30.7,25.3,29.87,NE,36,3.0,8.0,80,0.00,,,0.01,Wunderground v.1.15,2013-03-03 03:47:00,
2013-03-02 18:53:00,30.7,25.3,29.87,East,85,2.0,8.0,80,0.00,,,0.01,Wunderground v.1.15,2013-03-03 03:53:00,
2013-03-02 18:59:00,31.0,25.2,29.88,ENE,77,3.0,8.0,79,0.00,,,0.01,Wunderground v.1.15,2013-03-03 03:59:00,
2013-03-02 19:04:00,31.0,25.2,29.88,NE,56,2.0,8.0,79,0.00,,,0.01,Wunderground v.1.15,2013-03-03 04:04:00,
2013-03-02 19:10:00,31.2,25.1,29.88,ENE,67,3.0,8.0,78,0.00,,,0.01,Wunderground v.1.15,2013-03-03 04:10:00,
2013-03-02 19:16:00,31.3,25.2,29.89,ENE,60,3.0,8.0,78,0.00,,,0.01,Wunderground v.1.15,2013-03-03 04:16:00,
2013-03-02 19:22:00,31.4,25.0,29.89,East,84,2.0,8.0,77,0.00,,,0.01,Wunderground v.1.15,2013-03-03 04:22:00,
2013-03-02 19:27:00,31.5,25.1,29.89,NE,51,2.0,8.0,77,0.00,,,0.01,Wunderground v.1.15,2013-03-03 04:27:00,
2013-03-02 19:33:00,31.5,24.8,29.89,NNE,25,3.0,8.0,76,0.00,,,0.01,Wunderground v.1.15,2013-03-03 04:33:00,
2013-03-02 19:39:00,31.6,24.9,29.89,NNE,23,4.0,8.0,76,0.00,,,0.01,Wunderground v.1.15,2013-03-03 04:39:00,
2013-03-02 19:45:00,31.7,25.0,29.88,NNE,21,3.0,8.0,76,0.00,,,0.01,Wunderground v.1.15,2013-03-03 04:45:00,
2013-03-02 19:51:00,31.6,24.6,29.88,East,98,4.0,4.0,75,0.00,,,0.01,Wunderground v.1.15,2013-03-03 04:51:00,
2013-03-02 19:57:00,31.7,24.7,29.87,East,89,4.0,8.0,75,0.00,,,0.01,Wunderground v.1.15,2013-03-03 04:57:00,
2013-03-02 20:00:00,31.7,24.7,29.87,East,91,3.0,8.0,75,0.00,,,0.01,Wunderground v.1.15,2013-03-03 05:00:00,
2013-03-02 20:02:00,31.8,24.8,29.87,ENE,75,4.0,8.0,75,0.00,,,0.01,Wunderground v.1.15,2013-03-03 05:02:00,
2013-03-02 20:04:00,31.8,24.8,29.87,East,82,3.0,8.0,75,0.00,,,0.01,Wunderground v.1.15,2013-03-03 05:04:00,
2013-03-02 20:10:00,32.0,25.0,29.87,NE,47,4.0,17.0,75,0.00,,,0.01,Wunderground v.1.15,2013-03-03 05:10:00,
2013-03-02 20:11:00,32.1,25.1,29.87,ESE,119,4.0,8.0,75,0.00,,,0.01,Wunderground v.1.15,2013-03-03 05:11:00,
2013-03-02 20:16:00,32.0,25.0,29.87,East,98,5.0,8.0,75,0.00,,,0.01,Wunderground v.1.15,2013-03-03 05:16:00,
2013-03-02 20:22:00,32.1,25.1,29.88,ENE,70,4.0,5.0,75,0.00,,,0.01,Wunderground v.1.15,2013-03-03 05:22:00,
2013-03-02 20:28:00,32.3,25.3,29.88,ENE,69,6.0,13.0,75,0.00,,,0.01,Wunderground v.1.15,2013-03-03 05:28:00,
2013-03-02 20:34:00,32.5,25.1,29.88,NE,44,8.0,9.0,74,0.00,,,0.01,Wunderground v.1.15,2013-03-03 05:34:00,
2013-03-02 20:39:00,32.7,25.0,29.89,ENE,65,6.0,9.0,73,0.00,,,0.01,Wunderground v.1.15,2013-03-03 05:39:00,
2013-03-02 20:45:00,32.5,25.1,29.88,ENE,75,4.0,8.0,74,0.00,,,0.01,Wunderground v.1.15,2013-03-03 05:45:00,
2013-03-02 20:51:00,32.5,24.8,29.88,ENE,62,4.0,4.0,73,0.00,,,0.01,Wunderground v.1.15,2013-03-03 05:51:00,
2013-03-02 20:56:00,32.6,24.9,29.88,ENE,77,4.0,8.0,73,0.00,,,0.01,Wunderground v.1.15,2013-03-03 05:56:00,
2013-03-02 21:01:00,32.5,24.8,29.88,ESE,103,4.0,4.0,73,0.00,,,0.01,Wunderground v.1.15,2013-03-03 06:01:00,
2013-03-02 21:07:00,32.4,25.0,29.88,East,89,3.0,10.0,74,0.00,,,0.01,Wunderground v.1.15,2013-03-03 06:07:00,
2013-03-02 21:13:00,32.4,25.0,29.88,ESE,104,3.0,8.0,74,0.00,,,0.01,Wunderground v.1.15,2013-03-03 06:13:00,
2013-03-02 21:19:00,32.5,25.1,29.88,East,85,4.0,8.0,74,0.00,,,0.01,Wunderground v.1.15,2013-03-03 06:19:00,
2013-03-02 21:25:00,32.7,25.3,29.88,NE,51,4.0,8.0,74,0.00,,,0.01,Wunderground v.1.15,2013-03-03 06:25:00,
2013-03-02 21:31:00,32.7,25.3,29.89,ENE,60,4.0,8.0,74,0.00,,,0.01,Wunderground v.1.15,2013-03-03 06:31:00,
2013-03-02 21:37:00,32.6,25.2,29.89,ENE,74,5.0,8.0,74,0.00,,,0.01,Wunderground v.1.15,2013-03-03 06:37:00,
2013-03-02 21:42:00,32.7,25.3,29.89,East,86,5.0,9.0,74,0.00,,,0.01,Wunderground v.1.15,2013-03-03 06:42:00,
2013-03-02 21:47:00,32.7,25.3,29.89,ENE,58,5.0,9.0,74,0.00,,,0.01,Wunderground v.1.15,2013-03-03 06:47:00,
2013-03-02 21:52:00,32.7,25.0,29.89,East,80,5.0,8.0,73,0.00,,,0.01,Wunderground v.1.15,2013-03-03 06:52:00,
2013-03-02 21:58:00,32.7,25.0,29.89,East,86,4.0,8.0,73,0.00,,,0.01,Wunderground v.1.15,2013-03-03 06:58:00,
2013-03-02 22:04:00,32.6,25.2,29.89,ESE,115,2.0,8.0,74,0.00,,,0.01,Wunderground v.1.15,2013-03-03 07:04:00,
2013-03-02 22:10:00,32.6,25.6,29.88,ENE,71,4.0,8.0,75,0.00,,,0.01,Wunderground v.1.15,2013-03-03 07:10:00,
2013-03-02 22:15:00,32.6,25.6,29.89,ENE,78,4.0,8.0,75,0.00,,,0.01,Wunderground v.1.15,2013-03-03 07:15:00,
2013-03-02 22:21:00,32.6,25.6,29.89,ESE,109,5.0,8.0,75,0.00,,,0.01,Wunderground v.1.15,2013-03-03 07:21:00,
2013-03-02 22:27:00,32.5,25.8,29.88,East,96,5.0,8.0,76,0.00,,,0.01,Wunderground v.1.15,2013-03-03 07:27:00,
2013-03-02 22:32:00,32.4,25.7,29.88,ENE,68,3.0,5.0,76,0.00,,,0.01,Wunderground v.1.15,2013-03-03 07:32:00,
2013-03-02 22:38:00,32.3,25.3,29.89,East,84,3.0,8.0,75,0.00,,,0.01,Wunderground v.1.15,2013-03-03 07:38:00,
2013-03-02 22:44:00,32.3,25.3,29.88,NE,56,3.0,8.0,75,0.00,,,0.01,Wunderground v.1.15,2013-03-03 07:44:00,
2013-03-02 22:50:00,32.4,25.7,29.89,ENE,75,3.0,8.0,76,0.00,,,0.01,Wunderground v.1.15,2013-03-03 07:50:00,
2013-03-02 22:55:00,32.4,25.7,29.89,NE,36,4.0,8.0,76,0.00,,,0.01,Wunderground v.1.15,2013-03-03 07:55:00,
2013-03-02 23:01:00,32.4,25.7,29.89,ENE,75,5.0,8.0,76,0.00,,,0.01,Wunderground v.1.15,2013-03-03 08:01:00,
2013-03-02 23:07:00,32.5,25.5,29.89,ENE,73,5.0,18.0,75,0.00,,,0.01,Wunderground v.1.15,2013-03-03 08:07:00,
2013-03-02 23:13:00,32.6,25.6,29.89,ESE,104,5.0,8.0,75,0.00,,,0.01,Wunderground v.1.15,2013-03-03 08:13:00,
2013-03-02 23:19:00,32.6,25.6,29.89,ENE,67,4.0,10.0,75,0.00,,,0.01,Wunderground v.1.15,2013-03-03 08:19:00,
2013-03-02 23:25:00,32.8,25.4,29.90,ESE,109,4.0,8.0,74,0.00,,,0.01,Wunderground v.1.15,2013-03-03 08:25:00,
2013-03-02 23:31:00,32.9,25.5,29.90,East,79,3.0,3.0,74,0.00,,,0.01,Wunderground v.1.15,2013-03-03 08:31:00,
2013-03-02 23:37:00,32.8,25.7,29.90,East,82,3.0,8.0,75,0.00,,,0.01,Wunderground v.1.15,2013-03-03 08:37:00,
2013-03-02 23:42:00,32.7,25.6,29.91,East,96,3.0,8.0,75,0.00,,,0.01,Wunderground v.1.15,2013-03-03 08:42:00,
2013-03-02 23:48:00,32.7,25.6,29.90,East,94,3.0,8.0,75,0.00,,,0.01,Wunderground v.1.15,2013-03-03 08:48:00,
2013-03-02 23:54:00,32.6,25.9,29.90,ENE,76,4.0,8.0,76,0.00,,,0.01,Wunderground v.1.15,2013-03-03 08:54:00,